Regional Weather Roundup
Issued by NWS Cleveland, OH

Home | Current Version | Previous Version | Text Only | Print | Product List | Glossary Off
Versions: 1 2 3 4 5 6 7 8 9 10 11 12 13 14 15 16 17 18 19 20 21 22 23 24 25 26 27 28 29 30 31 32 33 34 35 36 37 38 39 40 41 42 43 44 45 46 47 48 49 50

000
ASUS41 KCLE 011400
RWRCLE
OHIO REGIONAL WEATHER ROUNDUP
NATIONAL WEATHER SERVICE WILMINGTON, OH
900 AM EST SUN FEB 01 2015

NOTE: "FAIR" INDICATES FEW OR NO CLOUDS BELOW 12,000 FEET WITH NO
SIGNIFICANT WEATHER AND/OR OBSTRUCTIONS TO VISIBILITY.

OHZ001>008-015>018-024>027-034-035-043-044-011500-
   NORTHWEST OHIO

CITY           SKY/WX    TMP DP  RH WIND       PRES   REMARKS
DEFIANCE       SNOW      32  29  88 E12       30.07F VSB 1/2 WCI  23
FINDLAY        SNOW      33  31  92 SE7       30.07F VSB 1/2 WCI  27
TOLEDO EXPRESS SNOW      27  24  89 E14       30.10F VSB 1/2 WCI  16
TOLEDO EXEC    LGT SNOW  28  24  85 NE8       30.13S VSB 3/4 WCI  20
LIMA           SNOW      34  32  92 E8        30.03F VSB 1/2 WCI  27
$$

OHZ009>014-019>023-028>033-038-089-011500-
   NORTHEAST OHIO

CITY           SKY/WX    TMP DP  RH WIND       PRES   REMARKS
CLE-HOPKINS    SNOW      29  27  92 SE6       30.16F VSB 1/2 WCI  23
CLE-LAKEFRONT  LGT SNOW  31  29  92 SE5       30.14F VSB 3/4 WCI  26
CUY CO. ARPT   LGT SNOW  30  30 100 E5        30.14F VSB 1   WCI  25
LORAIN-ELYRIA  LGT SNOW  28  27  96 SE6       30.13F VSB 3/4 WCI  22
ASHTABULA      LGT SNOW  26  24  92 SE5       30.16S VSB 3/4 WCI  20
AKRON-CANTON   LGT SNOW  29  26  89 S7        30.12F VSB 1   WCI  22
WOOSTER        LGT SNOW  28  27  93 S7        30.12F FOG     WCI  21
MANSFIELD      CLOUDY    30  29  96 SE6       30.09F FOG     WCI  24
YOUNGSTOWN     LGT SNOW  27  25  92 SE6       30.14S VSB 3/4 WCI  20
$$

OHZ042-051>053-060>062-070>072-077>081-011500-
  SOUTHWEST OHIO

CITY           SKY/WX    TMP DP  RH WIND       PRES   REMARKS
CINC-COVINGTON NOT AVBL
CINC-LUNKEN    CLOUDY    37  30  75 SE8       30.01F
HAMILTON       CLOUDY    36  32  85 E3        30.01F
DAYTON         CLOUDY    33  31  92 E14       30.02F FOG     WCI  23
WRIGHT-PAT AFB NOT AVBL
DAYTON GENERAL CLOUDY    34  32  92 E10       29.98F WCI  26
WILMINGTON     CLOUDY    32  30  92 SE14      30.01F WCI  22
$$

OHZ036-037-039>041-045>050-054>059-063>069-073>076-082>088-011500-
  CENTRAL AND SOUTHEAST OHIO

CITY           SKY/WX    TMP DP  RH WIND       PRES   REMARKS
COLUMBUS       LGT SNOW  32  30  92 SE7       30.11F VSB 3/4 WCI  26
OSU AIRPORT    LGT SNOW  32  30  92 SE7       30.10F VSB 3/4 WCI  26
BOLTON FIELD   SNOW      30  30 100 SE6       30.09F VSB 1/2 WCI  24
RICKENBACK AFB NOT AVBL
NEWARK         LGT SNOW  32  30  92 SE6       30.12F VSB 3/4 WCI  26
MARION         LGT SNOW  32  30  92 SE10      30.09F VSB 3/4 WCI  24
LANCASTER      SNOW      32  31  96 SE8       30.12F VSB 1/2 WCI  25
ZANESVILLE     SNOW      30  28  92 SE6       30.15F VSB 1/2 WCI  24
NEW PHILLY     LGT SNOW  29  27  92 SE5       30.16F FOG     WCI  24
$$



USA.gov is the U.S. government's official web portal to all federal, state and local government web resources and services.